Miller Place, New York, United States (11764)
Lat: 40.96N, Lon: 73W
Wx Zone: NYZ078
Local Info
Past Weather Observations for Today

NOTE: This archive is for the closest National Weather Service station to Miller Place. Information may differ from the station used for current weather conditions.

Click here for Long-term Archive

Time Weather Temperature Dewpoint Humidity Pressure Winds Precip Visibility
18:56
Overcast
36°F / 2°C 19°F / -7°C 52% 29.68 in
(1005 mb)
SSW 4.6 mph
(SSW 7 kph)
- 10SM
17:56
Mostly Cloudy
36°F / 2°C 21°F / -6°C 56% 29.68 in
(1005 mb)
W 6.9 mph
(W 11 kph)
- 10SM
16:56
Overcast
37°F / 3°C 21°F / -6°C 52% 29.65 in
(1004 mb)
W 9.2 mph
(W 15 kph)
- 10SM
15:56
Overcast
37°F / 3°C 23°F / -5°C 56% 29.62 in
(1003 mb)
W 8.1 mph
(W 13 kph)
- 10SM
14:56
Mostly Cloudy
39°F / 4°C 27°F / -3°C 61% 29.59 in
(1002 mb)
SSW 10.4 mph
(SSW 17 kph)
0.00 in
(0.00 mm)
10SM
13:56
Partly Cloudy
37°F / 3°C 27°F / -3°C 65% 29.59 in
(1002 mb)
WNW 9.2 mph
(WNW 15 kph)
0.00 in
(0.00 mm)
10SM
12:56
Overcast
36°F / 2°C 30°F / -1°C 81% 29.59 in
(1002 mb)
W 10.4 mph
(W 17 kph)
0.00 in
(0.00 mm)
9SM
12:21
Overcast
Light Snow
36°F / 2°C 30°F / -1°C 81% 29.59 in
(1002 mb)
W 8.1 mph
(W 13 kph)
0.00 in
(0.00 mm)
4SM
11:56
Overcast
Light Snow
36°F / 2°C 30°F / -1°C 81% 29.59 in
(1002 mb)
W 10.4 mph
(W 17 kph)
0.00 in
(0.00 mm)
3SM
11:47
Overcast
Light Snow
36°F / 2°C 30°F / -1°C 81% 29.59 in
(1002 mb)
W 9.2 mph
(W 15 kph)
0.00 in
(0.00 mm)
4SM
11:25
Overcast
Light Snow
36°F / 2°C 30°F / -1°C 81% 29.62 in
(1003 mb)
W 8.1 mph
(W 13 kph)
0.00 in
(0.00 mm)
4SM
10:56
Overcast
Light Snow
36°F / 2°C 30°F / -1°C 81% 29.62 in
(1003 mb)
SSW 8.1 mph
(SSW 13 kph)
0.00 in
(0.00 mm)
5SM
10:33
Overcast
Light Snow
34°F / 1°C 30°F / -1°C 87% 29.62 in
(1003 mb)
W 6.9 mph
(W 11 kph)
0.00 in
(0.00 mm)
5SM
10:18
Overcast
Light Snow
34°F / 1°C 30°F / -1°C 87% 29.62 in
(1003 mb)
SSW 4.6 mph
(SSW 7 kph)
0.00 in
(0.00 mm)
5SM
09:56
Overcast
Fog And Mist
34°F / 1°C 30°F / -1°C 87% 29.62 in
(1003 mb)
Calm 0.02 in
(0.51 mm)
4SM
09:43
Overcast
Light Snow
34°F / 1°C 32°F / 0°C 93% 29.62 in
(1003 mb)
Calm 0.02 in
(0.51 mm)
3SM
09:06
Overcast
Light Snow
30°F / -1°C 30°F / -1°C 100% 29.62 in
(1003 mb)
Calm 0.00 in
(0.00 mm)
2SM
08:56
Overcast
Fog And Mist
30°F / -1°C 30°F / -1°C 100% 29.62 in
(1003 mb)
Calm 0.00 in
(0.00 mm)
3SM
08:28
Overcast
Light Snow
28°F / -2°C 28°F / -2°C 100% 29.62 in
(1003 mb)
Calm 0.00 in
(0.00 mm)
3SM
08:14
Overcast
Light Snow
28°F / -2°C 28°F / -2°C 100% 29.62 in
(1003 mb)
Calm 0.00 in
(0.00 mm)
2SM
07:56
Overcast
Fog And Mist
28°F / -2°C 27°F / -3°C 93% 29.62 in
(1003 mb)
Calm - 6SM
06:56
Overcast
27°F / -3°C 25°F / -4°C 93% 29.62 in
(1003 mb)
Calm - 7SM
06:45
Overcast
Fog And Mist
27°F / -3°C 25°F / -4°C 93% 29.62 in
(1003 mb)
Calm - 6SM
05:56
Overcast
Fog And Mist
28°F / -2°C 25°F / -4°C 86% 29.59 in
(1002 mb)
Calm 0.00 in
(0.00 mm)
5SM
05:04
Overcast
Light Snow
28°F / -2°C 27°F / -3°C 93% 29.62 in
(1003 mb)
Calm 0.00 in
(0.00 mm)
3SM
04:56
Overcast
Light Snow
28°F / -2°C 27°F / -3°C 93% 29.59 in
(1002 mb)
Calm 0.00 in
(0.00 mm)
2 1/2SM
03:56
Overcast
Fog And Mist
27°F / -3°C 25°F / -4°C 93% 29.59 in
(1002 mb)
Calm 0.00 in
(0.00 mm)
5SM
02:56
Overcast
27°F / -3°C 25°F / -4°C 93% 29.59 in
(1002 mb)
Calm 0.00 in
(0.00 mm)
7SM
01:56
Overcast
Fog And Mist
27°F / -3°C 25°F / -4°C 93% 29.62 in
(1003 mb)
Calm - 6SM
00:56
Overcast
25°F / -4°C 23°F / -5°C 93% 29.62 in
(1003 mb)
Calm - 10SM
Time Weather Temperature Dewpoint Humidity Pressure Winds Precip Visibility


Weather for websites

WeatherForYou.com, LLC is not responsible for any damages or problems caused by this service. Current weather conditions are obtained from the closest station including government and personal stations which may have varying degrees of accuracy. Weather forecasts are derived from the NOAA NDFD. Like all things, this site belongs to Jesus Christ... He just trusts us to maintain it. If you have any questions or comments email webmaster@weatherforyou.com

Copyright © 2016, WeatherForYou.com LLC. All rights reserved.